Вернуться в каталог

SDA_1675

АктивенВоенныеPO
NORAD 65985·PAYLOAD·🇺🇸 United States

Запущен Oct 15, 2025 с Vandenberg Space Force Base

Loading…

Ближайшие Пролёты (ближайшие 24 часа)

TLE

СвежийSource: Space-Track

Эпоха: Sep 14, 2026, 14:32 UTC

1 65985U 25230M   26257.60563261  .00000138  00000-0  11236-3 0  9994
2 65985  81.2973 128.7797 0002065 292.5884  67.5055 13.84769451 46182

Отслеживайте SDA_1675 в реальном времени с AllMySat

Download on the App Store